Miscellaneous Local Product
Issued by NWS North Platte, NE

Home | Current Version | Previous Version | Graphics & Text | Print | Product List | Glossary On
Versions: 1 2 3 4 5 6 7 8 9 10 11 12 13 14 15 16 17 18 19 20 21 22 23 24 25 26 27 28 29 30 31 32 33 34 35 36 37 38 39 40 41 42 43 44 45 46 47 48 49 50
008
AXUS43 KLBF 191910
MISLBF


WESTERN AND NORTH CENTRAL NEBRASKA HOURLY WEATHER ROUNDUP
NATIONAL WEATHER SERVICE NORTH PLATTE NE
200 PM CDT THU APR 19 2018

NOTE: "FAIR" INDICATES FEW OR NO CLOUDS BELOW 12,000 FEET WITH NO
SIGNIFICANT WEATHER AND/OR OBSTRUCTIONS TO VISIBILITY.

NOTE: STATIONS NOT REPORTING VARIABLES SUCH AS SKY/WEATHER OR
PRESSURE ARE PROVIDED BY RAWS AND APRS NETWORKS AND ARE NOT UNDER
NATIONAL WEATHER SERVICE QUALITY CONTROL.

...OBSERVATIONS IN AND NEAR THE EASTERN PANHANDLE OF NEBRASKA...

CITY           SKY/WX    TMP DP  RH WIND       PRES   REMARKS
PINE RIDGE     PTSUNNY   56  30  37 S13       30.28F
GORDON         FAIR      55  30  39 S10G17    30.29F
CHADRON        PTSUNNY   59  32  36 S24G30    30.24F
ALLIANCE       PTSUNNY   56  33  42 SE24G30   30.25F
SIDNEY         MOSUNNY   57  27  31 S28G37    30.25F
CRESCENT LAKE    N/A    N/A ***   0 SE9G20      N/A
$$

...OBSERVATIONS IN NORTHERN NEBRASKA AND FAR SOUTHERN SOUTH DAKOTA...

CITY           SKY/WX    TMP DP  RH WIND       PRES   REMARKS
WINNER         FAIR      44  31  60 SE10      30.41F
VALENTINE      PTSUNNY   51  29  42 SE14      30.37F
AINSWORTH      MOSUNNY   48  32  52 SE12      30.39F
O`NEILL        SUNNY     50  24  36 SE3       30.44F
THEDFORD       SUNNY     53  29  39 SE8       30.38F
BROKEN BOW     SUNNY     52  32  46 E10       30.40F
ORD            SUNNY     51  22  31 SE7       30.41F
ALBION         SUNNY     52  23  33 SE6       30.44F
VALENTINE NWR    N/A     49  29  46 S9          N/A
HALSEY           N/A     52  27  37 SE8         N/A
BUTTE            N/A     42  33  70 E7          N/A
CHAMBERS         N/A     53  29  39 S3          N/A
EWING            N/A     48  31  53 NE6         N/A
$$

...OBSERVATIONS IN SOUTHWEST NEBRASKA AND FAR NORTHEAST COLORADO...

CITY           SKY/WX    TMP DP  RH WIND       PRES   REMARKS
WRAY           FAIR      61  28  29 SE18G31   30.28F
HOLYOKE        FAIR      59  30  33 SE20G28   30.28F
IMPERIAL       SUNNY     58  30  34 SE17      30.31F
OGALLALA       MOSUNNY   58  29  33 SE14G22   30.31F
NORTH PLATTE   SUNNY     57  32  38 SE12      30.35F
MCCOOK         SUNNY     56  28  34 E14G20    30.36F
LEXINGTON      SUNNY     52  31  44 E5        30.40F
STAPLETON        N/A     54  31  42 CALM        N/A
GOTHENBURG       N/A     50  27  41 SE8         N/A
CALLAWAY         N/A     52  34  50 SE8         N/A
$$

...OBSERVATIONS IN CENTRAL LINCOLN COUNTY AREA...

CITY           SKY/WX    TMP DP  RH WIND       PRES   REMARKS
N.P. AIRPORT   SUNNY     57  32  38 SE12      30.35F
N.P. DOWNTOWN    N/A     55  33  43 E3G14       N/A
N.P. HILLCREST   N/A     54  33  44 SE9G17      N/A
$$

...OBSERVATIONS ACROSS THE ROCKIES AND WESTERN HIGH PLAINS...

CITY           SKY/WX    TMP DP  RH WIND       PRES   REMARKS
RAPID CITY     MOSUNNY   56  30  37 S17G26    30.27F
SCOTTSBLUFF    MOSUNNY   58  30  34 SE23G31   30.21F
CHEYENNE       MOSUNNY   54  18  24 S25G35    30.16F
DENVER         PTSUNNY   63  17  17 S17G32    30.12F
BERTHOUD PASS  FAIR      32  21  64 S24G31    30.29S WCI  19
MONARCH PASS   SUNNY     37   5  25 S21G32    30.39S WCI  27
ASPEN          MOSUNNY   60   7  12 SW15      30.01F
STEAMBOAT      FAIR      61   8  12 SE10G18   29.99F
LARAMIE        MOSUNNY   50  12  21 SE32G45   30.09F
CASPER         MOSUNNY   56  24  29 E7        30.07F
$$

...OBSERVATIONS ACROSS THE NORTHERN PLAINS...

CITY           SKY/WX    TMP DP  RH WIND       PRES   REMARKS
BISMARCK       MOSUNNY   52  32  46 E7        30.39F
FARGO          FAIR      54  26  34 W10       30.42F
PIERRE         SUNNY     50  31  48 S12       30.38F
SIOUX FALLS    MOSUNNY   44  26  49 W3        30.48F
$$

...OBSERVATIONS ACROSS THE CENTRAL AND SOUTHERN PLAINS...

CITY           SKY/WX    TMP DP  RH WIND       PRES   REMARKS
OMAHA          MOSUNNY   54  29  38 VRB3      30.47S
GRAND ISLAND   SUNNY     51  31  46 VRB5      30.45F
KANSAS CITY    MOSUNNY   55  31  39 NE10      30.45S
WICHITA        MOSUNNY   57  28  33 E14G22    30.42F
DODGE CITY     SUNNY     59  29  31 VRB5G18   30.38F
OKLAHOMA CITY  CLOUDY    60  30  32 N6        30.39F
DALLAS         PTSUNNY   65  33  30 N13       30.34F
AMARILLO       SUNNY     64  19  17 SE14G24   30.34F
$$




USA.gov is the U.S. government's official web portal to all federal, state and local government web resources and services.